This is the latest recevied weather packets stored in our database for station/object W0AKY-13. If no packets are shown the sender has not sent any weather packets the latest 10 day(s).
| Time | Temp. | Humidity | Pressure | Rain* | Wind** | Luminosity | Snow |
|---|---|---|---|---|---|---|---|
| 1777313521 | 15° C | 85% | 1005.8 hPa | 0 mm | - | 67 W/m² | - |
| 1777313219 | 15° C | 85% | 1005.8 hPa | 0 mm | - | 68 W/m² | - |
| 1777312915 | 15° C | 85% | 1005.7 hPa | 0 mm | - | 84 W/m² | - |
| 1777312611 | 15° C | 86% | 1005.6 hPa | 0 mm | - | 147 W/m² | - |
| 1777312308 | 15° C | 86% | 1005.6 hPa | 0 mm | - | 149 W/m² | - |
| 1777312005 | 15° C | 87% | 1005.9 hPa | 0 mm | - | 99 W/m² | - |
| 1777311701 | 15° C | 87% | 1005.8 hPa | 0 mm | - | 111 W/m² | - |
| 1777311400 | 15° C | 87% | 1005.8 hPa | 0 mm | - | 103 W/m² | - |
| 1777311097 | 15° C | 87% | 1005.5 hPa | 0 mm | - | 117 W/m² | - |
| 1777310795 | 15° C | 87% | 1005.3 hPa | 0 mm | - | 105 W/m² | - |
| 1777310492 | 15° C | 89% | 1005.2 hPa | 0 mm | - | 147 W/m² | - |
| 1777310189 | 15° C | 88% | 1005.3 hPa | 0 mm | - | 165 W/m² | - |
| 1777309887 | 14.44° C | 89% | 1005.3 hPa | 0 mm | - | 114 W/m² | - |
| 1777309585 | 14.44° C | 90% | 1005.1 hPa | 0 mm | - | 112 W/m² | - |
| 1777309281 | 14.44° C | 90% | 1005.2 hPa | 0 mm | - | 89 W/m² | - |
| 1777308980 | 14.44° C | 90% | 1005 hPa | 0 mm | - | 88 W/m² | - |
| 1777308675 | 14.44° C | 90% | 1005.3 hPa | 0 mm | - | 63 W/m² | - |
| 1777308370 | 14.44° C | 91% | 1005 hPa | 0 mm | - | 77 W/m² | - |
| 1777308065 | 14.44° C | 90% | 1005.3 hPa | 0 mm | - | 60 W/m² | - |
| 1777307764 | 15° C | 90% | 1005 hPa | 0 mm | - | 69 W/m² | - |
| 1777307461 | 15° C | 90% | 1004.5 hPa | 0 mm | - | 126 W/m² | - |
| 1777307158 | 15° C | 90% | 1004.7 hPa | 0 mm | - | 143 W/m² | - |
| 1777306855 | 15° C | 91% | 1004.9 hPa | 0 mm | - | 124 W/m² | - |
| 1777306552 | 15° C | 90% | 1004.7 hPa | 0 mm | - | 71 W/m² | - |
| 1777306247 | 15° C | 90% | 1004.4 hPa | 0 mm | - | 68 W/m² | - |
* Rain latest hour (hover to see other rain measurements)
** Current wind speed in m/s (hover to see current wind gust speed)